Year,Month,Day,Hour,Minute,Value (Times are PST for temperature in C)
2016,04,10,00,00,9.90
2016,04,10,00,01,9.80
2016,04,10,00,02,9.80
2016,04,10,00,03,9.80
2016,04,10,00,04,9.80
2016,04,10,00,05,9.80
2016,04,10,00,06,9.80
2016,04,10,00,07,9.70
2016,04,10,00,08,9.70
2016,04,10,00,09,9.70
2016,04,10,00,10,9.70
2016,04,10,00,11,9.60
2016,04,10,00,12,9.60
2016,04,10,00,13,9.60
2016,04,10,00,14,9.60
2016,04,10,00,15,9.60
2016,04,10,00,16,9.50
2016,04,10,00,17,9.50
2016,04,10,00,18,9.50
2016,04,10,00,19,9.40
2016,04,10,00,20,9.40
2016,04,10,00,21,9.40
2016,04,10,00,22,9.40
2016,04,10,00,23,9.40
2016,04,10,00,24,9.30
2016,04,10,00,25,9.30
2016,04,10,00,26,9.30
2016,04,10,00,27,9.30
2016,04,10,00,28,9.30
2016,04,10,00,29,9.30
2016,04,10,00,30,9.30
2016,04,10,00,31,9.30
2016,04,10,00,32,9.20
2016,04,10,00,33,9.20
2016,04,10,00,34,9.20
2016,04,10,00,35,9.20
2016,04,10,00,36,9.20
2016,04,10,00,37,9.20
2016,04,10,00,38,9.20
2016,04,10,00,39,9.20
2016,04,10,00,40,9.20
2016,04,10,00,41,9.20
2016,04,10,00,42,9.20
2016,04,10,00,43,9.20
2016,04,10,00,44,9.20
2016,04,10,00,45,9.20
2016,04,10,00,46,9.20
2016,04,10,00,47,9.20
2016,04,10,00,48,9.10
2016,04,10,00,49,9.10
2016,04,10,00,50,9.10
2016,04,10,00,51,9.10
2016,04,10,00,52,9.10
2016,04,10,00,53,9.10
2016,04,10,00,54,9.10
2016,04,10,00,55,9.10
2016,04,10,00,56,9.10
2016,04,10,00,57,9.10
2016,04,10,00,58,9.10
2016,04,10,00,59,9.10
2016,04,10,01,00,9.00
2016,04,10,01,01,9.00
2016,04,10,01,02,9.00
2016,04,10,01,03,9.00
2016,04,10,01,04,9.00
2016,04,10,01,05,9.00
2016,04,10,01,06,9.00
2016,04,10,01,07,9.00
2016,04,10,01,08,9.00
2016,04,10,01,09,9.00
2016,04,10,01,10,8.90
2016,04,10,01,11,8.90
2016,04,10,01,12,8.90
2016,04,10,01,13,8.90
2016,04,10,01,14,8.90
2016,04,10,01,15,8.90
2016,04,10,01,16,8.90
2016,04,10,01,17,8.90
2016,04,10,01,18,8.90
2016,04,10,01,19,8.90
2016,04,10,01,20,9.00
2016,04,10,01,21,9.00
2016,04,10,01,22,9.00
2016,04,10,01,23,9.00
2016,04,10,01,24,9.00
2016,04,10,01,25,9.00
2016,04,10,01,26,9.00
2016,04,10,01,27,8.90
2016,04,10,01,28,8.90
2016,04,10,01,29,8.90
2016,04,10,01,30,8.90
2016,04,10,01,31,8.90
2016,04,10,01,32,8.80
2016,04,10,01,33,8.80
2016,04,10,01,34,8.80
2016,04,10,01,35,8.80
2016,04,10,01,36,8.80
2016,04,10,01,37,8.80
2016,04,10,01,38,8.70
2016,04,10,01,39,8.70
2016,04,10,01,40,8.70
2016,04,10,01,41,8.70
2016,04,10,01,42,8.70
2016,04,10,01,43,8.60
2016,04,10,01,44,8.60
2016,04,10,01,45,8.60
2016,04,10,01,46,8.60
2016,04,10,01,47,8.60
2016,04,10,01,48,8.60
2016,04,10,01,49,8.60
2016,04,10,01,50,8.60
2016,04,10,01,51,8.60
2016,04,10,01,52,8.60
2016,04,10,01,53,8.50
2016,04,10,01,54,8.50
2016,04,10,01,55,8.50
2016,04,10,01,56,8.50
2016,04,10,01,57,8.50
2016,04,10,01,58,8.50
2016,04,10,01,59,8.60
2016,04,10,02,00,8.50
2016,04,10,02,01,8.50
2016,04,10,02,02,8.50
2016,04,10,02,03,8.50
2016,04,10,02,04,8.50
2016,04,10,02,05,8.40
2016,04,10,02,06,8.40
2016,04,10,02,07,8.40
2016,04,10,02,08,8.40
2016,04,10,02,09,8.40
2016,04,10,02,10,8.40
2016,04,10,02,11,8.40
2016,04,10,02,12,8.40
2016,04,10,02,13,8.40
2016,04,10,02,14,8.40
2016,04,10,02,15,8.40
2016,04,10,02,16,8.40
2016,04,10,02,17,8.40
2016,04,10,02,18,8.40
2016,04,10,02,19,8.40
2016,04,10,02,20,8.40
2016,04,10,02,21,8.40
2016,04,10,02,22,8.40
2016,04,10,02,23,8.50
2016,04,10,02,24,8.40
2016,04,10,02,25,8.40
2016,04,10,02,26,8.40
2016,04,10,02,27,8.40
2016,04,10,02,28,8.40
2016,04,10,02,29,8.40
2016,04,10,02,30,8.40
2016,04,10,02,31,8.40
2016,04,10,02,32,8.40
2016,04,10,02,33,8.40
2016,04,10,02,34,8.40
2016,04,10,02,35,8.40
2016,04,10,02,36,8.40
2016,04,10,02,37,8.40
2016,04,10,02,38,8.40
2016,04,10,02,39,8.40
2016,04,10,02,40,8.40
2016,04,10,02,41,8.40
2016,04,10,02,42,8.30
2016,04,10,02,43,8.30
2016,04,10,02,44,8.30
2016,04,10,02,45,8.30
2016,04,10,02,46,8.30
2016,04,10,02,47,8.30
2016,04,10,02,48,8.30
2016,04,10,02,49,8.30
2016,04,10,02,50,8.30
2016,04,10,02,51,8.30
2016,04,10,02,52,8.30
2016,04,10,02,53,8.30
2016,04,10,02,54,8.20
2016,04,10,02,55,8.30
2016,04,10,02,56,8.20
2016,04,10,02,57,8.20
2016,04,10,02,58,8.20
2016,04,10,02,59,8.20
2016,04,10,03,00,8.20
2016,04,10,03,01,8.20
2016,04,10,03,02,8.20
2016,04,10,03,03,8.20
2016,04,10,03,04,8.20
2016,04,10,03,05,8.20
2016,04,10,03,06,8.20
2016,04,10,03,07,8.20
2016,04,10,03,08,8.20
2016,04,10,03,09,8.20
2016,04,10,03,10,8.20
2016,04,10,03,11,8.10
2016,04,10,03,12,8.10
2016,04,10,03,13,8.10
2016,04,10,03,14,8.10
2016,04,10,03,15,8.10
2016,04,10,03,16,8.10
2016,04,10,03,17,8.10
2016,04,10,03,18,8.10
2016,04,10,03,19,8.00
2016,04,10,03,20,8.00
2016,04,10,03,21,8.00
2016,04,10,03,22,8.00
2016,04,10,03,23,8.00
2016,04,10,03,24,8.00
2016,04,10,03,25,8.00
2016,04,10,03,26,8.00
2016,04,10,03,27,8.10
2016,04,10,03,28,8.10
2016,04,10,03,29,8.10
2016,04,10,03,30,8.10
2016,04,10,03,31,8.10
2016,04,10,03,32,8.10
2016,04,10,03,33,8.10
2016,04,10,03,34,8.10
2016,04,10,03,35,8.10
2016,04,10,03,36,8.10
2016,04,10,03,37,8.10
2016,04,10,03,38,8.10
2016,04,10,03,39,8.10
2016,04,10,03,40,8.10
2016,04,10,03,41,8.10
2016,04,10,03,42,8.10
2016,04,10,03,43,8.00
2016,04,10,03,44,8.00
2016,04,10,03,45,8.00
2016,04,10,03,46,8.00
2016,04,10,03,47,8.00
2016,04,10,03,48,8.00
2016,04,10,03,49,7.90
2016,04,10,03,50,7.90
2016,04,10,03,51,7.90
2016,04,10,03,52,7.90
2016,04,10,03,53,7.90
2016,04,10,03,54,7.80
2016,04,10,03,55,7.80
2016,04,10,03,56,7.80
2016,04,10,03,57,7.80
2016,04,10,03,58,7.80
2016,04,10,03,59,7.80
2016,04,10,04,00,7.80
2016,04,10,04,01,7.80
2016,04,10,04,02,7.80
2016,04,10,04,03,7.80
2016,04,10,04,04,7.80
2016,04,10,04,05,7.80
2016,04,10,04,06,7.80
2016,04,10,04,07,7.80
2016,04,10,04,08,7.80
2016,04,10,04,09,7.80
2016,04,10,04,10,7.80
2016,04,10,04,11,7.80
2016,04,10,04,12,7.70
2016,04,10,04,13,7.70
2016,04,10,04,14,7.70
2016,04,10,04,15,7.70
2016,04,10,04,16,7.70
2016,04,10,04,17,7.70
2016,04,10,04,18,7.70
2016,04,10,04,19,7.70
2016,04,10,04,20,7.70
2016,04,10,04,21,7.70
2016,04,10,04,22,7.70
2016,04,10,04,23,7.70
2016,04,10,04,24,7.60
2016,04,10,04,25,7.60
2016,04,10,04,26,7.60
2016,04,10,04,27,7.60
2016,04,10,04,28,7.60
2016,04,10,04,29,7.60
2016,04,10,04,30,7.60
2016,04,10,04,31,7.60
2016,04,10,04,32,7.60
2016,04,10,04,33,7.60
2016,04,10,04,34,7.60
2016,04,10,04,35,7.50
2016,04,10,04,36,7.50
2016,04,10,04,37,7.50
2016,04,10,04,38,7.50
2016,04,10,04,39,7.50
2016,04,10,04,40,7.40
2016,04,10,04,41,7.40
2016,04,10,04,42,7.40
2016,04,10,04,43,7.40
2016,04,10,04,44,7.40
2016,04,10,04,45,7.40
2016,04,10,04,46,7.40
2016,04,10,04,47,7.40
2016,04,10,04,48,7.40
2016,04,10,04,49,7.40
2016,04,10,04,50,7.40
2016,04,10,04,51,7.50
2016,04,10,04,52,7.50
2016,04,10,04,53,7.50
2016,04,10,04,54,7.50
2016,04,10,04,55,7.50
2016,04,10,04,56,7.50
2016,04,10,04,57,7.50
2016,04,10,04,58,7.40
2016,04,10,04,59,7.40
2016,04,10,05,00,7.40
2016,04,10,05,01,7.40
2016,04,10,05,02,7.40
2016,04,10,05,03,7.40
2016,04,10,05,04,7.40
2016,04,10,05,05,7.30
2016,04,10,05,06,7.40
2016,04,10,05,07,7.30
2016,04,10,05,08,7.30
2016,04,10,05,09,7.30
2016,04,10,05,10,7.30
2016,04,10,05,11,7.30
2016,04,10,05,12,7.30
2016,04,10,05,13,7.30
2016,04,10,05,14,7.30
2016,04,10,05,15,7.30
2016,04,10,05,16,7.30
2016,04,10,05,17,7.30
2016,04,10,05,18,7.30
2016,04,10,05,19,7.30
2016,04,10,05,20,7.30
2016,04,10,05,21,7.30
2016,04,10,05,22,7.30
2016,04,10,05,23,7.30
2016,04,10,05,24,7.30
2016,04,10,05,25,7.30
2016,04,10,05,26,7.30
2016,04,10,05,27,7.30
2016,04,10,05,28,7.30
2016,04,10,05,29,7.20
2016,04,10,05,30,7.20
2016,04,10,05,31,7.20
2016,04,10,05,32,7.20
2016,04,10,05,33,7.20
2016,04,10,05,34,7.20
2016,04,10,05,35,7.20
2016,04,10,05,36,7.20
2016,04,10,05,37,7.20
2016,04,10,05,38,7.20
2016,04,10,05,39,7.20
2016,04,10,05,40,7.20
2016,04,10,05,41,7.20
2016,04,10,05,42,7.20
2016,04,10,05,43,7.20
2016,04,10,05,44,7.20
2016,04,10,05,45,7.20
2016,04,10,05,46,7.20
2016,04,10,05,47,7.20
2016,04,10,05,48,7.20
2016,04,10,05,49,7.20
2016,04,10,05,50,7.20
2016,04,10,05,51,7.20
2016,04,10,05,52,7.20
2016,04,10,05,53,7.20
2016,04,10,05,54,7.20
2016,04,10,05,55,7.20
2016,04,10,05,56,7.20
2016,04,10,05,57,7.20
2016,04,10,05,58,7.20
2016,04,10,05,59,7.20
2016,04,10,06,00,7.20
2016,04,10,06,01,7.20
2016,04,10,06,02,7.20
2016,04,10,06,03,7.20
2016,04,10,06,04,7.20
2016,04,10,06,05,7.20
2016,04,10,06,06,7.10
2016,04,10,06,07,7.20
2016,04,10,06,08,7.20
2016,04,10,06,09,7.20
2016,04,10,06,10,7.20
2016,04,10,06,11,7.20
2016,04,10,06,12,7.20
2016,04,10,06,13,7.20
2016,04,10,06,14,7.10
2016,04,10,06,15,7.10
2016,04,10,06,16,7.10
2016,04,10,06,17,7.10
2016,04,10,06,18,7.10
2016,04,10,06,19,7.10
2016,04,10,06,20,7.10
2016,04,10,06,21,7.10
2016,04,10,06,22,7.10
2016,04,10,06,23,7.10
2016,04,10,06,24,7.10
2016,04,10,06,25,7.10
2016,04,10,06,26,7.10
2016,04,10,06,27,7.10
2016,04,10,06,28,7.10
2016,04,10,06,29,7.10
2016,04,10,06,30,7.10
2016,04,10,06,31,7.10
2016,04,10,06,32,7.10
2016,04,10,06,33,7.10
2016,04,10,06,34,7.10
2016,04,10,06,35,7.10
2016,04,10,06,36,7.10
2016,04,10,06,37,7.10
2016,04,10,06,38,7.10
2016,04,10,06,39,7.10
2016,04,10,06,40,7.10
2016,04,10,06,41,7.10
2016,04,10,06,42,7.10
2016,04,10,06,43,7.10
2016,04,10,06,44,7.10
2016,04,10,06,45,7.10
2016,04,10,06,46,7.10
2016,04,10,06,47,7.10
2016,04,10,06,48,7.10
2016,04,10,06,49,7.10
2016,04,10,06,50,7.10
2016,04,10,06,51,7.10
2016,04,10,06,52,7.10
2016,04,10,06,53,7.20
2016,04,10,06,54,7.20
2016,04,10,06,55,7.20
2016,04,10,06,56,7.20
2016,04,10,06,57,7.20
2016,04,10,06,58,7.20
2016,04,10,06,59,7.20
2016,04,10,07,00,7.20
2016,04,10,07,01,7.20
2016,04,10,07,02,7.20
2016,04,10,07,03,7.20
2016,04,10,07,04,7.10
2016,04,10,07,05,7.10
2016,04,10,07,06,7.10
2016,04,10,07,07,7.10
2016,04,10,07,08,7.10
2016,04,10,07,09,7.10
2016,04,10,07,10,7.20
2016,04,10,07,11,7.20
2016,04,10,07,12,7.20
2016,04,10,07,13,7.20
2016,04,10,07,14,7.20
2016,04,10,07,15,7.20
2016,04,10,07,16,7.20
2016,04,10,07,17,7.20
2016,04,10,07,18,7.20
2016,04,10,07,19,7.20
2016,04,10,07,20,7.30
2016,04,10,07,21,7.30
2016,04,10,07,22,7.30
2016,04,10,07,23,7.40
2016,04,10,07,24,7.40
2016,04,10,07,25,7.40
2016,04,10,07,26,7.50
2016,04,10,07,27,7.50
2016,04,10,07,28,7.50
2016,04,10,07,29,7.60
2016,04,10,07,30,7.60
2016,04,10,07,31,7.70
2016,04,10,07,32,7.70
2016,04,10,07,33,7.80
2016,04,10,07,34,7.80
2016,04,10,07,35,7.90
2016,04,10,07,36,7.90
2016,04,10,07,37,8.00
2016,04,10,07,38,8.10
2016,04,10,07,39,8.10
2016,04,10,07,40,8.10
2016,04,10,07,41,8.20
2016,04,10,07,42,8.20
2016,04,10,07,43,8.30
2016,04,10,07,44,8.40
2016,04,10,07,45,8.40
2016,04,10,07,46,8.50
2016,04,10,07,47,8.60
2016,04,10,07,48,8.60
2016,04,10,07,49,8.70
2016,04,10,07,50,8.80
2016,04,10,07,51,8.90
2016,04,10,07,52,8.90
2016,04,10,07,53,9.00
2016,04,10,07,54,9.00
2016,04,10,07,55,9.00
2016,04,10,07,56,9.10
2016,04,10,07,57,9.10
2016,04,10,07,58,9.10
2016,04,10,07,59,9.20
2016,04,10,08,00,9.30
2016,04,10,08,01,9.40
2016,04,10,08,02,9.40
2016,04,10,08,03,9.50
2016,04,10,08,04,9.60
2016,04,10,08,05,9.70
2016,04,10,08,06,9.70
2016,04,10,08,07,9.80
2016,04,10,08,08,9.80
2016,04,10,08,09,9.80
2016,04,10,08,10,9.80
2016,04,10,08,11,9.80
2016,04,10,08,12,9.80
2016,04,10,08,13,9.80
2016,04,10,08,14,9.80
2016,04,10,08,15,9.80
2016,04,10,08,16,9.70
2016,04,10,08,17,9.70
2016,04,10,08,18,9.70
2016,04,10,08,19,9.70
2016,04,10,08,20,9.70
2016,04,10,08,21,9.70
2016,04,10,08,22,9.70
2016,04,10,08,23,9.70
2016,04,10,08,24,9.70
2016,04,10,08,25,9.70
2016,04,10,08,26,9.70
2016,04,10,08,27,9.70
2016,04,10,08,28,9.70
2016,04,10,08,29,9.70
2016,04,10,08,30,9.70
2016,04,10,08,31,9.70
2016,04,10,08,32,9.80
2016,04,10,08,33,9.80
2016,04,10,08,34,9.80
2016,04,10,08,35,9.90
2016,04,10,08,36,9.90
2016,04,10,08,37,9.90
2016,04,10,08,38,9.90
2016,04,10,08,39,10.00
2016,04,10,08,40,10.00
2016,04,10,08,41,10.00
2016,04,10,08,42,10.00
2016,04,10,08,43,10.10
2016,04,10,08,44,10.10
2016,04,10,08,45,10.10
2016,04,10,08,46,10.10
2016,04,10,08,47,10.10
2016,04,10,08,48,10.10
2016,04,10,08,49,10.10
2016,04,10,08,50,10.10
2016,04,10,08,51,10.10
2016,04,10,08,52,10.10
2016,04,10,08,53,10.10
2016,04,10,08,54,10.10
2016,04,10,08,55,10.10
2016,04,10,08,56,10.10
2016,04,10,08,57,10.10
2016,04,10,08,58,10.20
2016,04,10,08,59,10.20
2016,04,10,09,00,10.20
2016,04,10,09,01,10.20
2016,04,10,09,02,10.20
2016,04,10,09,03,10.20
2016,04,10,09,04,10.20
2016,04,10,09,05,10.20
2016,04,10,09,06,10.30
2016,04,10,09,07,10.30
2016,04,10,09,08,10.30
2016,04,10,09,09,10.30
2016,04,10,09,10,10.30
2016,04,10,09,11,10.30
2016,04,10,09,12,10.20
2016,04,10,09,13,10.20
2016,04,10,09,14,10.10
2016,04,10,09,15,10.00
2016,04,10,09,16,10.00
2016,04,10,09,17,10.00
2016,04,10,09,18,9.90
2016,04,10,09,19,9.90
2016,04,10,09,20,9.90
2016,04,10,09,21,9.90
2016,04,10,09,22,9.90
2016,04,10,09,23,9.90
2016,04,10,09,24,9.90
2016,04,10,09,25,9.80
2016,04,10,09,26,9.80
2016,04,10,09,27,9.80
2016,04,10,09,28,9.80
2016,04,10,09,29,9.70
2016,04,10,09,30,9.70
2016,04,10,09,31,9.70
2016,04,10,09,32,9.70
2016,04,10,09,33,9.70
2016,04,10,09,34,9.70
2016,04,10,09,35,9.70
2016,04,10,09,36,9.70
2016,04,10,09,37,9.80
2016,04,10,09,38,9.80
2016,04,10,09,39,9.80
2016,04,10,09,40,9.80
2016,04,10,09,41,9.80
2016,04,10,09,42,9.90
2016,04,10,09,43,9.90
2016,04,10,09,44,9.90
2016,04,10,09,45,10.00
2016,04,10,09,46,10.00
2016,04,10,09,47,10.00
2016,04,10,09,48,10.10
2016,04,10,09,49,10.10
2016,04,10,09,50,10.10
2016,04,10,09,51,10.10
2016,04,10,09,52,10.10
2016,04,10,09,53,10.10
2016,04,10,09,54,10.10
2016,04,10,09,55,10.10
2016,04,10,09,56,10.10
2016,04,10,09,57,10.10
2016,04,10,09,58,10.10
2016,04,10,09,59,10.10
2016,04,10,10,00,10.20
2016,04,10,10,01,10.20
2016,04,10,10,02,10.20
2016,04,10,10,03,10.20
2016,04,10,10,04,10.30
2016,04,10,10,05,10.30
2016,04,10,10,06,10.30
2016,04,10,10,07,10.40
2016,04,10,10,08,10.40
2016,04,10,10,09,10.40
2016,04,10,10,10,10.50
2016,04,10,10,11,10.50
2016,04,10,10,12,10.60
2016,04,10,10,13,10.60
2016,04,10,10,14,10.60
2016,04,10,10,15,10.60
2016,04,10,10,16,10.60
2016,04,10,10,17,10.70
2016,04,10,10,18,10.70
2016,04,10,10,19,10.70
2016,04,10,10,20,10.70
2016,04,10,10,21,10.70
2016,04,10,10,22,10.70
2016,04,10,10,23,10.60
2016,04,10,10,24,10.60
2016,04,10,10,25,10.60
2016,04,10,10,26,10.60
2016,04,10,10,27,10.60
2016,04,10,10,28,10.60
2016,04,10,10,29,10.60
2016,04,10,10,30,10.60
2016,04,10,10,31,10.60
2016,04,10,10,32,10.60
2016,04,10,10,33,10.60
2016,04,10,10,34,10.60
2016,04,10,10,35,10.70
2016,04,10,10,36,10.70
2016,04,10,10,37,10.70
2016,04,10,10,38,10.70
2016,04,10,10,39,10.70
2016,04,10,10,40,10.70
2016,04,10,10,41,10.70
2016,04,10,10,42,10.70
2016,04,10,10,43,10.70
2016,04,10,10,44,10.70
2016,04,10,10,45,10.70
2016,04,10,10,46,10.70
2016,04,10,10,47,10.80
2016,04,10,10,48,10.80
2016,04,10,10,49,10.80
2016,04,10,10,50,10.80
2016,04,10,10,51,10.80
2016,04,10,10,52,10.80
2016,04,10,10,53,10.80
2016,04,10,10,54,10.80
2016,04,10,10,55,10.80
2016,04,10,10,56,10.80
2016,04,10,10,57,10.80
2016,04,10,10,58,10.80
2016,04,10,10,59,10.80
2016,04,10,11,00,10.80
2016,04,10,11,01,10.80
2016,04,10,11,02,10.80
2016,04,10,11,03,10.80
2016,04,10,11,04,10.80
2016,04,10,11,05,10.80
2016,04,10,11,06,10.80
2016,04,10,11,07,10.90
2016,04,10,11,08,10.90
2016,04,10,11,09,10.90
2016,04,10,11,10,11.00
2016,04,10,11,11,11.00
2016,04,10,11,12,11.00
2016,04,10,11,13,11.10
2016,04,10,11,14,11.10
2016,04,10,11,15,11.10
2016,04,10,11,16,11.10
2016,04,10,11,17,11.10
2016,04,10,11,18,11.10
2016,04,10,11,19,11.10
2016,04,10,11,20,11.10
2016,04,10,11,21,11.10
2016,04,10,11,22,11.20
2016,04,10,11,23,11.20
2016,04,10,11,24,11.20
2016,04,10,11,25,11.20
2016,04,10,11,26,11.20
2016,04,10,11,27,11.30
2016,04,10,11,28,11.30
2016,04,10,11,29,11.30
2016,04,10,11,30,11.30
2016,04,10,11,31,11.30
2016,04,10,11,32,11.30
2016,04,10,11,33,11.20
2016,04,10,11,34,11.20
2016,04,10,11,35,11.20
2016,04,10,11,36,11.20
2016,04,10,11,37,11.20
2016,04,10,11,38,11.20
2016,04,10,11,39,11.30
2016,04,10,11,40,11.30
2016,04,10,11,41,11.30
2016,04,10,11,42,11.40
2016,04,10,11,43,11.50
2016,04,10,11,44,11.50
2016,04,10,11,45,11.60
2016,04,10,11,46,11.60
2016,04,10,11,47,11.70
2016,04,10,11,48,11.70
2016,04,10,11,49,11.70
2016,04,10,11,50,11.70
2016,04,10,11,51,11.70
2016,04,10,11,52,11.70
2016,04,10,11,53,11.80
2016,04,10,11,54,11.80
2016,04,10,11,55,11.80
2016,04,10,11,56,11.80
2016,04,10,11,57,11.90
2016,04,10,11,58,11.90
2016,04,10,11,59,11.90
2016,04,10,12,00,11.90
2016,04,10,12,01,11.90
2016,04,10,12,02,11.90
2016,04,10,12,03,11.90
2016,04,10,12,04,11.90
2016,04,10,12,05,11.90
2016,04,10,12,06,12.00
2016,04,10,12,07,12.00
2016,04,10,12,08,12.10
2016,04,10,12,09,12.10
2016,04,10,12,10,12.10
2016,04,10,12,11,12.20
2016,04,10,12,12,12.20
2016,04,10,12,13,12.20
2016,04,10,12,14,12.20
2016,04,10,12,15,12.20
2016,04,10,12,16,12.20
2016,04,10,12,17,12.20
2016,04,10,12,18,12.20
2016,04,10,12,19,12.20
2016,04,10,12,20,12.10
2016,04,10,12,21,12.10
2016,04,10,12,22,12.20
2016,04,10,12,23,12.20
2016,04,10,12,24,12.20
2016,04,10,12,25,12.20
2016,04,10,12,26,12.20
2016,04,10,12,27,12.30
2016,04,10,12,28,12.30
2016,04,10,12,29,12.30
2016,04,10,12,30,12.30
2016,04,10,12,31,12.40
2016,04,10,12,32,12.40
2016,04,10,12,33,12.40
2016,04,10,12,34,12.40
2016,04,10,12,35,12.40
2016,04,10,12,36,12.50
2016,04,10,12,37,12.50
2016,04,10,12,38,12.60
2016,04,10,12,39,12.60
2016,04,10,12,40,12.60
2016,04,10,12,41,12.60
2016,04,10,12,42,12.60
2016,04,10,12,43,12.70
2016,04,10,12,44,12.70
2016,04,10,12,45,12.70
2016,04,10,12,46,12.70
2016,04,10,12,47,12.70
2016,04,10,12,48,12.70
2016,04,10,12,49,12.70
2016,04,10,12,50,12.60
2016,04,10,12,51,12.60
2016,04,10,12,52,12.60
2016,04,10,12,53,12.60
2016,04,10,12,54,12.60
2016,04,10,12,55,12.60
2016,04,10,12,56,12.60
2016,04,10,12,57,12.70
2016,04,10,12,58,12.70
2016,04,10,12,59,12.70
2016,04,10,13,00,12.80
2016,04,10,13,01,12.80
2016,04,10,13,02,12.80
2016,04,10,13,03,12.80
2016,04,10,13,04,12.80
2016,04,10,13,05,12.80
2016,04,10,13,06,12.80
2016,04,10,13,07,12.80
2016,04,10,13,08,12.80
2016,04,10,13,09,12.80
2016,04,10,13,10,12.80
2016,04,10,13,11,12.80
2016,04,10,13,12,12.80
2016,04,10,13,13,12.80
2016,04,10,13,14,12.70
2016,04,10,13,15,12.80
2016,04,10,13,16,12.70
2016,04,10,13,17,12.70
2016,04,10,13,18,12.70
2016,04,10,13,19,12.80
2016,04,10,13,20,12.80
2016,04,10,13,21,12.80
2016,04,10,13,22,12.80
2016,04,10,13,23,12.80
2016,04,10,13,24,12.80
2016,04,10,13,25,12.80
2016,04,10,13,26,12.80
2016,04,10,13,27,12.90
2016,04,10,13,28,12.90
2016,04,10,13,29,12.90
2016,04,10,13,30,12.90
2016,04,10,13,31,12.90
2016,04,10,13,32,13.00
2016,04,10,13,33,13.00
2016,04,10,13,34,13.10
2016,04,10,13,35,13.10
2016,04,10,13,36,13.10
2016,04,10,13,37,13.10
2016,04,10,13,38,13.10
2016,04,10,13,39,13.10
2016,04,10,13,40,13.10
2016,04,10,13,41,13.10
2016,04,10,13,42,13.10
2016,04,10,13,43,13.10
2016,04,10,13,44,13.10
2016,04,10,13,45,13.00
2016,04,10,13,46,12.90
2016,04,10,13,47,12.80
2016,04,10,13,48,12.80
2016,04,10,13,49,12.80
2016,04,10,13,50,12.80
2016,04,10,13,51,12.80
2016,04,10,13,52,12.80
2016,04,10,13,53,12.80
2016,04,10,13,54,12.80
2016,04,10,13,55,12.90
2016,04,10,13,56,12.90
2016,04,10,13,57,12.90
2016,04,10,13,58,12.90
2016,04,10,13,59,12.90
2016,04,10,14,00,12.90
2016,04,10,14,01,12.90
2016,04,10,14,02,12.90
2016,04,10,14,03,12.90
2016,04,10,14,04,12.90
2016,04,10,14,05,12.90
2016,04,10,14,06,12.90
2016,04,10,14,07,12.90
2016,04,10,14,08,12.90
2016,04,10,14,09,12.90
2016,04,10,14,10,12.90
2016,04,10,14,11,12.90
2016,04,10,14,12,12.90
2016,04,10,14,13,13.00
2016,04,10,14,14,13.00
2016,04,10,14,15,12.90
2016,04,10,14,16,12.90
2016,04,10,14,17,12.90
2016,04,10,14,18,12.90
2016,04,10,14,19,12.90
2016,04,10,14,20,12.90
2016,04,10,14,21,12.90
2016,04,10,14,22,12.90
2016,04,10,14,23,12.90
2016,04,10,14,24,12.90
2016,04,10,14,25,12.90
2016,04,10,14,26,12.90
2016,04,10,14,27,12.80
2016,04,10,14,28,12.80
2016,04,10,14,29,12.80
2016,04,10,14,30,12.80
2016,04,10,14,31,12.80
2016,04,10,14,32,12.80
2016,04,10,14,33,12.80
2016,04,10,14,34,12.80
2016,04,10,14,35,12.80
2016,04,10,14,36,12.80
2016,04,10,14,37,12.80
2016,04,10,14,38,12.80
2016,04,10,14,39,12.80
2016,04,10,14,40,12.80
2016,04,10,14,41,12.80
2016,04,10,14,42,12.90
2016,04,10,14,43,12.90
2016,04,10,14,44,12.90
2016,04,10,14,45,13.00
2016,04,10,14,46,13.00
2016,04,10,14,47,13.10
2016,04,10,14,48,13.10
2016,04,10,14,49,13.10
2016,04,10,14,50,13.20
2016,04,10,14,51,13.20
2016,04,10,14,52,13.20
2016,04,10,14,53,13.20
2016,04,10,14,54,13.20
2016,04,10,14,55,13.30
2016,04,10,14,56,13.30
2016,04,10,14,57,13.30
2016,04,10,14,58,13.30
2016,04,10,14,59,13.30
2016,04,10,15,00,13.30
2016,04,10,15,01,13.30
2016,04,10,15,02,13.30
2016,04,10,15,03,13.30
2016,04,10,15,04,13.30
2016,04,10,15,05,13.40
2016,04,10,15,06,13.40
2016,04,10,15,07,13.40
2016,04,10,15,08,13.40
2016,04,10,15,09,13.40
2016,04,10,15,10,13.40
2016,04,10,15,11,13.40
2016,04,10,15,12,13.50
2016,04,10,15,13,13.50
2016,04,10,15,14,13.50
2016,04,10,15,15,13.50
2016,04,10,15,16,13.50
2016,04,10,15,17,13.50
2016,04,10,15,18,13.60
2016,04,10,15,19,13.50
2016,04,10,15,20,13.60
2016,04,10,15,21,13.60
2016,04,10,15,22,13.50
2016,04,10,15,23,13.50
2016,04,10,15,24,13.60
2016,04,10,15,25,13.60
2016,04,10,15,26,13.60
2016,04,10,15,27,13.70
2016,04,10,15,28,13.70
2016,04,10,15,29,13.70
2016,04,10,15,30,13.70
2016,04,10,15,31,13.80
2016,04,10,15,32,13.80
2016,04,10,15,33,13.80
2016,04,10,15,34,13.80
2016,04,10,15,35,13.80
2016,04,10,15,36,13.90
2016,04,10,15,37,13.90
2016,04,10,15,38,13.90
2016,04,10,15,39,14.00
2016,04,10,15,40,14.00
2016,04,10,15,41,14.10
2016,04,10,15,42,14.10
2016,04,10,15,43,14.10
2016,04,10,15,44,14.20
2016,04,10,15,45,14.20
2016,04,10,15,46,14.10
2016,04,10,15,47,14.10
2016,04,10,15,48,14.00
2016,04,10,15,49,13.90
2016,04,10,15,50,13.80
2016,04,10,15,51,13.80
2016,04,10,15,52,13.90
2016,04,10,15,53,13.90
2016,04,10,15,54,14.00
2016,04,10,15,55,14.10
2016,04,10,15,56,14.10
2016,04,10,15,57,14.10
2016,04,10,15,58,14.10
2016,04,10,15,59,14.10
2016,04,10,16,00,14.20
2016,04,10,16,01,14.20
2016,04,10,16,02,14.30
2016,04,10,16,03,14.30
2016,04,10,16,04,14.30
2016,04,10,16,05,14.30
2016,04,10,16,06,14.30
2016,04,10,16,07,14.20
2016,04,10,16,08,14.20
2016,04,10,16,09,14.20
2016,04,10,16,10,14.20
2016,04,10,16,11,14.20
2016,04,10,16,12,14.20
2016,04,10,16,13,14.20
2016,04,10,16,14,14.30
2016,04,10,16,15,14.30
2016,04,10,16,16,14.30
2016,04,10,16,17,14.40
2016,04,10,16,18,14.40
2016,04,10,16,19,14.40
2016,04,10,16,20,14.50
2016,04,10,16,21,14.60
2016,04,10,16,22,14.60
2016,04,10,16,23,14.60
2016,04,10,16,24,14.50
2016,04,10,16,25,14.40
2016,04,10,16,26,14.40
2016,04,10,16,27,14.40
2016,04,10,16,28,14.50
2016,04,10,16,29,14.40
2016,04,10,16,30,14.40
2016,04,10,16,31,14.40
2016,04,10,16,32,14.40
2016,04,10,16,33,14.40
2016,04,10,16,34,14.40
2016,04,10,16,35,14.30
2016,04,10,16,36,14.30
2016,04,10,16,37,14.30
2016,04,10,16,38,14.30
2016,04,10,16,39,14.30
2016,04,10,16,40,14.30
2016,04,10,16,41,14.30
2016,04,10,16,42,14.40
2016,04,10,16,43,14.40
2016,04,10,16,44,14.30
2016,04,10,16,45,14.30
2016,04,10,16,46,14.30
2016,04,10,16,47,14.30
2016,04,10,16,48,14.30
2016,04,10,16,49,14.30
2016,04,10,16,50,14.30
2016,04,10,16,51,14.20
2016,04,10,16,52,14.20
2016,04,10,16,53,14.20
2016,04,10,16,54,14.30
2016,04,10,16,55,14.30
2016,04,10,16,56,14.30
2016,04,10,16,57,14.30
2016,04,10,16,58,14.30
2016,04,10,16,59,14.20
2016,04,10,17,00,14.20
2016,04,10,17,01,14.20
2016,04,10,17,02,14.30
2016,04,10,17,03,14.30
2016,04,10,17,04,14.30
2016,04,10,17,05,14.30
2016,04,10,17,06,14.30
2016,04,10,17,07,14.30
2016,04,10,17,08,14.40
2016,04,10,17,09,14.40
2016,04,10,17,10,14.40
2016,04,10,17,11,14.50
2016,04,10,17,12,14.50
2016,04,10,17,13,14.60
2016,04,10,17,14,14.60
2016,04,10,17,15,14.60
2016,04,10,17,16,14.60
2016,04,10,17,17,14.50
2016,04,10,17,18,14.40
2016,04,10,17,19,14.40
2016,04,10,17,20,14.30
2016,04,10,17,21,14.30
2016,04,10,17,22,14.20
2016,04,10,17,23,14.20
2016,04,10,17,24,14.20
2016,04,10,17,25,14.20
2016,04,10,17,26,14.20
2016,04,10,17,27,14.20
2016,04,10,17,28,14.20
2016,04,10,17,29,14.20
2016,04,10,17,30,14.20
2016,04,10,17,31,14.20
2016,04,10,17,32,14.10
2016,04,10,17,33,14.10
2016,04,10,17,34,14.10
2016,04,10,17,35,14.20
2016,04,10,17,36,14.20
2016,04,10,17,37,14.20
2016,04,10,17,38,14.30
2016,04,10,17,39,14.30
2016,04,10,17,40,14.30
2016,04,10,17,41,14.30
2016,04,10,17,42,14.30
2016,04,10,17,43,14.20